TimeCST,TemperatureF,Dew PointF,Humidity,Sea Level PressureIn,VisibilityMPH,Wind Direction,Wind SpeedMPH,Gust SpeedMPH,PrecipitationIn,Events,Conditions,WindDirDegrees,DateUTC
12:53 AM,54.0,35.1,49,30.22,10.0,South,8.1,-,N/A,,Clear,170,2012-11-19 06:53:00
1:53 AM,53.1,35.1,50,30.22,10.0,South,6.9,-,N/A,,Partly Cloudy,180,2012-11-19 07:53:00
2:53 AM,53.1,37.9,57,30.23,10.0,South,9.2,-,0.00,Rain,Light Rain,190,2012-11-19 08:53:00
3:53 AM,48.0,43.0,83,30.24,10.0,South,3.5,-,0.02,Rain,Light Rain,180,2012-11-19 09:53:00
4:53 AM,48.9,43.0,80,30.25,10.0,Calm,Calm,-,0.04,Rain,Light Rain,0,2012-11-19 10:53:00
5:53 AM,48.0,43.0,83,30.24,8.0,SSE,3.5,-,0.02,Rain,Light Rain,150,2012-11-19 11:53:00
6:53 AM,46.9,45.0,93,30.24,10.0,ESE,3.5,-,0.01,Rain,Light Rain,110,2012-11-19 12:53:00
7:53 AM,48.0,46.0,93,30.23,9.0,South,3.5,-,0.01,Rain,Light Rain,190,2012-11-19 13:53:00
8:53 AM,50.0,43.0,77,30.25,10.0,SSW,3.5,-,0.00,,Overcast,200,2012-11-19 14:53:00
9:53 AM,53.1,43.0,69,30.23,10.0,SSW,5.8,-,N/A,,Overcast,200,2012-11-19 15:53:00
10:53 AM,57.0,42.1,57,30.21,10.0,SSW,11.5,21.9,N/A,,Overcast,200,2012-11-19 16:53:00
11:53 AM,59.0,43.0,55,30.19,10.0,South,10.4,18.4,N/A,,Overcast,190,2012-11-19 17:53:00
12:53 PM,59.0,43.0,55,30.17,10.0,South,10.4,-,N/A,,Overcast,180,2012-11-19 18:53:00
1:53 PM,60.1,44.1,55,30.16,10.0,South,5.8,-,N/A,,Overcast,190,2012-11-19 19:53:00
2:53 PM,61.0,44.1,54,30.14,10.0,South,10.4,-,N/A,,Overcast,170,2012-11-19 20:53:00
3:53 PM,59.0,44.1,58,30.15,10.0,South,9.2,-,N/A,,Clear,190,2012-11-19 21:53:00
4:53 PM,57.9,43.0,58,30.15,10.0,SSW,3.5,-,N/A,,Clear,210,2012-11-19 22:53:00
5:53 PM,53.1,43.0,69,30.16,10.0,Calm,Calm,-,N/A,,Clear,0,2012-11-19 23:53:00
6:53 PM,50.0,41.0,71,30.17,10.0,South,4.6,-,N/A,,Clear,190,2012-11-20 00:53:00
7:53 PM,48.0,41.0,77,30.19,10.0,Calm,Calm,-,N/A,,Clear,0,2012-11-20 01:53:00
8:53 PM,44.1,39.9,85,30.19,10.0,Calm,Calm,-,N/A,,Clear,0,2012-11-20 02:53:00
9:53 PM,42.1,39.0,89,30.19,10.0,SSW,3.5,-,N/A,,Clear,200,2012-11-20 03:53:00
10:53 PM,44.1,41.0,89,30.17,10.0,South,5.8,-,N/A,,Clear,190,2012-11-20 04:53:00
11:53 PM,46.0,42.1,86,30.17,10.0,Calm,Calm,-,N/A,,Clear,0,2012-11-20 05:53:00